Hourly Weather Roundup
Issued by NWS Central Illinois

Home | Current Version | Previous Version | Text Only | Print | Product List | Glossary Off
Versions: 1 2 3 4 5 6 7 8 9 10 11 12 13 14 15 16 17 18 19 20 21 22 23 24 25 26 27 28 29 30 31 32 33 34 35 36 37 38 39 40 41 42 43 44 45 46 47 48 49 50

000
NZUS43 KILX 021710
HWRILX

AREA WEATHER ROUNDUP
NATIONAL WEATHER SERVICE, LINCOLN IL
1100 AM CST FRI DEC 02 2016


CITY           SKY/WX    TMP DP  RH WIND       PRES   REMARKS
BLOOMINGTON    CLOUDY    38  33  82 W10       30.22S WCI  31
CHAMPAIGN      CLOUDY    40  32  73 W14       30.23S WCI  32
DANVILLE       CLOUDY    39  33  80 W10       30.19S WCI  32
DECATUR        CLOUDY    40  29  64 NW9       30.25R WCI  34
EFFINGHAM      CLOUDY    41  34  74 W9        30.27F
FLORA          SUNNY     44  32  63 NW7       30.27F
GALESBURG      CLOUDY    39  33  76 W9        30.22F WCI  33
JACKSONVILLE   CLOUDY    40  31  70 W9        30.26S WCI  34
LACON          CLOUDY    39  34  80 W7        30.21S WCI  34
LAWRENCEVILLE  CLOUDY    42  31  64 NW12      30.27F
LITCHFIELD     SUNNY     38  32  77 W12       30.26F WCI  31
$$


CITY           SKY/WX    TMP DP  RH WIND       PRES   REMARKS
LINCOLN        CLOUDY    40  33  75 W3        30.24S
MACOMB         CLOUDY    40  32  74 W9        30.26S WCI  34
MATTOON        CLOUDY    40  30  67 W12       30.24S WCI  33
MT CARMEL AP   SUNNY     42  32  68 W7        30.27S
OLNEY-NOBLE AP SUNNY     41  32  70 NW6       30.27F
PARIS          CLOUDY    39  34  81 W13       30.24S WCI  32
PEORIA         CLOUDY    40  33  76 W10       30.23S WCI  33
PONTIAC        CLOUDY    39  37  91 W12       30.22S WCI  32
RANTOUL        CLOUDY    40  36  84 W9        30.22S WCI  34
SPRINGFIELD    CLOUDY    40  32  73 W9        30.26S WCI  34
TAYLORVILLE    CLOUDY    39  32  76 W10       30.26F WCI  32
$$

...REGIONAL REPORTS...


CITY           SKY/WX    TMP DP  RH WIND       PRES   REMARKS
CHICAGO O`HARE CLOUDY    38  30  73 W10       30.15S WCI  31
KANKAKEE       CLOUDY    39  34  82 W10       30.20S WCI  32
MOLINE         CLOUDY    40  32  73 W8        30.22R WCI  34
MOUNT STERLING CLOUDY    38  32  77 W6        30.25S WCI  34
MOUNT VERNON   NOT AVBL
PITTSFIELD     MOSUNNY   41  31  69 W7        30.28S
QUINCY         SUNNY     41  32  70 W8        30.26S
ROCKFORD       CLOUDY    36  32  85 NW7       30.20R WCI  30
$$


CITY           SKY/WX    TMP DP  RH WIND       PRES   REMARKS
BURLINGTON     MOSUNNY   40  30  67 NW9       30.24R WCI  34
CEDAR RAPIDS   CLOUDY    36  31  82 W9        30.23R WCI  29
DES MOINES     CLOUDY    39  32  76 NW7       30.27R WCI  34
KIRKSVILLE     SUNNY     41  31  67 NW8       30.28R
OTTUMWA        CLOUDY    40  31  70 NW9       30.25R WCI  34
ST LOUIS       MOSUNNY   44  29  55 NW10      30.27F
$$


CITY           SKY/WX    TMP DP  RH WIND       PRES   REMARKS
TERRE HAUTE    CLOUDY    40  30  67 W9        30.24S WCI  34
EVANSVILLE     SUNNY     45  30  55 CALM      30.28F
INDIANAPOLIS   CLOUDY    39  31  72 W9        30.21S WCI  33
LAFAYETTE      CLOUDY    38  33  82 W12       30.20S WCI  30
MADISON        CLOUDY    33  23  66 N8        30.17S WCI  26
MILWAUKEE      CLOUDY    36  22  56 NW13      30.16R WCI  27
$$






USA.gov is the U.S. government's official web portal to all federal, state and local government web resources and services.